Location: Unspecified
(33.9239°N, 118.0544°W)
Time: 10:55:01
(UTC-07:00)

Cosmos 1674 - Visible Passes

Search period start: 23 July 2014 00:00
Search period end: 02 August 2014 00:00
Orbit: 516 x 543 km, 82.5° (Epoch: 22 July)

Date Brightness Start Highest point End Pass type
(mag) Time Alt. Az. Time Alt. Az. Time Alt. Az.
24 Jul 2.7 05:18:39 10° N 05:22:32 83° W 05:26:21 10° S visible
25 Jul 2.7 05:07:59 10° N 05:11:52 89° E 05:15:41 10° S visible
26 Jul 2.8 04:57:19 10° N 05:01:12 81° E 05:05:01 10° S visible
27 Jul 2.9 04:46:39 10° N 04:50:31 74° E 04:54:20 10° S visible
28 Jul 3.0 04:36:00 10° N 04:39:51 67° E 04:43:38 10° SSE visible
29 Jul 3.2 04:25:21 10° N 04:29:10 61° E 04:32:56 10° SSE visible
30 Jul 3.3 04:14:42 10° N 04:18:29 55° E 04:21:48 13° SSE visible
31 Jul 3.5 04:04:03 10° N 04:07:48 50° E 04:10:08 21° SSE visible
01 Aug 3.7 03:53:25 10° N 03:57:07 45° E 03:58:35 30° SE visible
